{"data":{"norad_id":58065,"intl_designator":"2023-158Q","name":"STARLINK-30576","alt_names":[],"object_type":"PAYLOAD","status":"ACTIVE","operator":null,"country":"US","launch_date":"2023-10-13","launch_site_code":"AFETR","launch_vehicle":null,"mission":null,"orbit_class":"UNKNOWN","rcs_meters":null,"size_class":null,"mass_kg":null,"dimensions":null,"purposes":["comms"],"wikipedia_slug":null,"has_3d_model":false,"image_url":null,"decayed_at":null,"tle_current":{"epoch":"2026-09-20T13:32:28.573440Z","epoch_age_seconds":132112,"freshness":"FRESH","line1":"1 58065U 23158Q   26263.56421960  .00001683  00000+0  70664-4 0  9999","line2":"2 58065  43.0033   6.4953 0001689 269.7046  90.3612 15.27576639163376","mean_motion":15.27576639,"eccentricity":0.0001689,"inclination_deg":43.0033,"raan_deg":6.4953,"arg_perigee_deg":269.7046,"mean_anomaly_deg":90.3612,"bstar":7.0664e-5,"rev_number":16337,"period_min":94.266956120949,"perigee_km":481.90030406978,"apogee_km":484.21801613266,"semimajor_km":6861.1961601012,"source":"CELESTRAK","updated_at":"2026-09-21T09:00:33.779789Z"}}}